www.pogodaiklimat.ru

Погода и климат >> Архив погоды >> Индонезия >> Белаван


ПОГОДА в Белаване

  • Прогноз погоды в Белаване
  • Монитор погоды в Белаване

АРХИВ ПОГОДЫ в Белаване

Время (UTC), дата Ветер
(напр.,м/с)
 
Видим.   Явления Облачность Т
(С)
Тd
(С)
f
(%)
Тe
(С)
Тes
(С)
Комфортность P
(гПа)
Po
(гПа)
Тmin
(С)
Tmax
(С)
R
(мм)
R24
(мм)
S
(см)
15 14.07 ЮЗ 3 4000 м гроза, ливневой дождь 10/6 450 м
[Cb cap As op]
+24.8 +23.3 91 +33 +33 очень
душно
1011.6 1011.1 11
18 14.07 Ю 3 2000 м слаб. дождь {гроза} 10/5 500 м
[Cb cap As op]
+24.6 +23.4 93 +33 +33 очень
душно
1011.3 1010.8 5
21 14.07 З 4 5000 м мгла {дождь} 9/4 500 м
[Sc As op Cs]
+24.4 +23.0 92 +32 +32 очень
душно
1009.3 1008.8 0.0
00 15.07 Ю 2 6000 м мгла {дождь} 9/3 500 м
[Sc Ac As Cs]
+24.4 +23.0 92 +32 +33 очень
душно
1009.8 1009.3 +25.4
03 15.07 ЮЗ 2 8000 м мгла 8/4 500 м
[Cb cap Ac trans Cs]
+29.4 +23.9 72 +40 +46 очень
душно
1010.9 1010.4
06 15.07 В 3 10 км 8/4 500 м
[Cb cap As op Cs]
+30.2 +24.4 71 +42 +49 опасность
перегрева
1009.3 1008.7
09 15.07 СВ 3 10 км 8/4 500 м
[Cu med, cong As op Ci fib]
+30.2 +24.7 72 +43 +45 опасность
перегрева
1006.9 1006.3
12 15.07 В 4 8000 м мгла 5/3 500 м
[Cb cap As trans Ci fib]
+29.0 +24.4 76 +41 +41 опасность
перегрева
1008.0 1007.5 +30.8
15 15.07 ЮЗ 3 5000 м осадки на расстоянии 8/4 500 м
[Cb cap As op Cs]
+28.2 +25.0 83 +41 +41 опасность
перегрева
1009.7 1009.2
18 15.07 ЮЗ 2 4000 м осадки на расстоянии 9/5 500 м
[Cb cap As op Cs]
+26.2 +23.5 85 +36 +36 очень
душно
1009.4 1008.9
21 15.07 ЮЗ 2 4000 м мгла 8/4 500 м
[Cb cap As op Cs]
+26.0 +23.0 84 +35 +35 очень
душно
1008.2 1007.7
00 16.07 штиль 0 6000 м слаб. дождь 10/5 480 м
[Cb cap As op Cs]
+26.0 +24.5 91 +36 +37 очень
душно
1009.6 1009.0 +25.0 0.0
03 16.07 ЮВ 4 8000 м мгла {дождь} 8/4 540 м
[Cu med, cong As op Ci fib]
+28.8 +24.2 76 +40 +44 очень
душно
1010.7 1010.2 0.0
06 16.07 СВ 4 8000 м мгла {дождь} 8/3 540 м
[Cu med, cong Ac trans Ci sp]
+30.2 +23.5 67 +41 +47 опасность
перегрева
1009.7 1009.2 0.0
09 16.07 В 4 8000 м мгла 9/4 540 м
[Cu med, cong As op Ci sp]
+30.4 +24.3 70 +42 +44 опасность
перегрева
1007.1 1006.6
12 16.07 В 4 6000 м мгла 10/3 540 м
[Cb cap As op Cs]
+29.2 +24.0 74 +41 +41 опасность
перегрева
1007.7 1007.2 +30.8
15 16.07 штиль 0 5000 м мгла 5/3 540 м
[Sc Ac trans Cs]
+28.2 +25.1 83 +41 +41 опасность
перегрева
1010.4 1009.9
18 16.07 ЮЗ 3 5000 м мгла 9/4 500 м
[Cb cap As op Cs]
+26.5 +23.6 84 +36 +36 очень
душно
1009.4 1008.9
21 16.07 ЮЗ 3 5000 м мгла 9/3 500 м
[Cb cap As op Cs]
+26.0 +23.9 88 +36 +36 очень
душно
1008.2 1007.7
00 17.07 ЮЗ 2 6000 м мгла {дождь} 9/3 500 м
[Cu Sc As op Cs]
+25.8 +24.0 90 +36 +36 очень
душно
1008.1 1007.6 +25.2 0.0
03 17.07 В 3 10 км 8/3 540 м
[Sc Ac trans Ci fib]
+30.2 +25.2 75 +44 +49 опасность
перегрева
1008.7 1008.2
06 17.07 В 3 10 км 6/3 540 м
[Sc Ac trans Ci fib]
+31.4 +26.0 73 +47 +57 опасность
перегрева
1006.5 1006.0
09 17.07 СВ 3 10 км 6/3 500 м
[Cu Sc As op Ci fib]
+31.6 +25.7 71 +47 +50 опасность
перегрева
1004.7 1004.1
12 17.07 В 5 6000 м осадки на расстоянии 10/6 500 м
[Cb cap As op]
+30.0 +25.4 76 +44 +44 опасность
перегрева
1006.3 1005.8 +32.0
15 17.07 ЮЗ 3 4000 м слаб. ливневой дождь, в посл. час гроза 10/5 450 м
[Cb cap As op]
+24.8 +23.3 91 +33 +33 очень
душно
1009.4 1008.9 40
18 17.07 штиль 0 9000 м мгла {гроза, дождь} 10/4 500 м
[Cb cap Ac trans Cs]
+26.0 +23.6 87 +35 +35 очень
душно
1008.0 1007.5 0.0
21 17.07 штиль 0 5000 м мгла 9/4 500 м
[Cb cap Ac As Cs]
+25.2 +23.7 91 +34 +34 очень
душно
1006.4 1005.9
00 18.07 штиль 0 6000 м мгла {дождь} 8/3 540 м
[Sc Ac As Cs]
+25.6 +23.8 90 +35 +35 очень
душно
1007.2 1006.7 +23.4 40
03 18.07 В 2 7000 м мгла 6/4 500 м
[Cu Sc Ac As Cs]
+29.0 +24.7 78 +41 +48 опасность
перегрева
1008.2 1007.7
06 18.07 В 3 7000 м мгла 8/5 500 м
[Cu Sc Ac As Cs]
+31.2 +25.2 70 +45 +51 опасность
перегрева
1006.2 1005.7
09 18.07 В 4 7000 м мгла 6/4 500 м
[Cu Sc Ac As Cs]
+31.0 +25.3 72 +45 +48 опасность
перегрева
1004.4 1003.9
12 18.07 ЮЗ 4 5000 м осадки на расстоянии 10/5 500 м
[Cb cap As op Cs]
+28.6 +22.7 70 +38 +38 очень
душно
1006.5 1006.0 +31.2
15 18.07 штиль 0 5000 м осадки на расстоянии 10/5 500 м
[Cb cap As op Cs]
+26.0 +24.5 91 +36 +36 очень
душно
1008.5 1008.0 20
18 18.07 Ю 2 5000 м мгла 9/5 500 м
[Cb cap As op Cs]
+26.3 +23.8 86 +36 +36 очень
душно
1008.3 1007.8
21 18.07 ЮВ 2 5000 м слаб. дождь 10/5 500 м
[Cb cap As op Cs]
+25.3 +24.2 94 +35 +35 очень
душно
1006.8 1006.3 2
00 19.07 ЮВ 3 6000 м осадки на расстоянии 9/5 500 м
[Cb cap As op Cs]
+26.0 +24.2 90 +36 +36 очень
душно
1007.8 1007.3 +25.2 0.0
03 19.07 В 2 7000 м мгла 9/3 500 м
[Cb cap As op Cs]
+29.0 +24.7 78 +41 +47 опасность
перегрева
1009.1 1008.5
06 19.07 В 2 7000 м мгла 9/3 500 м
[Cb cap As op Cs]
+30.8 +25.3 73 +45 +53 опасность
перегрева
1007.7 1007.2
09 19.07 В 2 7000 м мгла 8/3 500 м
[Cb cap As op Cs]
+31.0 +25.2 71 +45 +48 опасность
перегрева
1005.4 1004.9
12 19.07 ЮВ 6 6000 м осадки на расстоянии 10/5 450 м
[Cb cap As op]
+29.2 +25.3 80 +43 +43 опасность
перегрева
1007.6 1007.1 +32.4
15 19.07 ЮВ 3 6000 м мгла 10/5 500 м
[Cb cap As op]
+26.6 +23.6 84 +36 +36 очень
душно
1008.8 1008.3
18 19.07 штиль 0 5000 м мгла 6/3 540 м
[Sc Ac trans Cs]
+26.6 +24.2 87 +37 +37 очень
душно
1008.2 1007.5
21 19.07 штиль 0 5000 м мгла 9/4 500 м
[Cb cap Ac As Cs]
+26.8 +24.7 88 +38 +38 очень
душно
1007.0 1006.5
00 20.07 штиль 0 6000 м мгла 9/3 540 м
[Sc As trans Cs]
+26.6 +25.2 92 +38 +39 очень
душно
1008.4 1007.9 +25.0
03 20.07 В 3 7000 м мгла 10/1 540 м
[Sc As op Cs]
+29.4 +25.1 78 +43 +48 опасность
перегрева
1008.9 1008.4
06 20.07 ЮВ 3 7000 м мгла 9/3 540 м
[Cu med, cong As op Cs]
+31.2 +24.3 67 +43 +50 опасность
перегрева
1007.9 1007.4
09 20.07 В 3 8000 м мгла 8/3 540 м
[Cu med, cong Ac trans Ci sp]
+32.2 +23.8 61 +44 +47 опасность
перегрева
1006.0 1005.5
12 20.07 В 6 6000 м мгла 10/3 540 м
[Cb cap Ac trans Cs]
+29.8 +24.9 75 +43 +43 опасность
перегрева
1006.8 1006.3 +32.7
15 20.07 ЮВ 2 5000 м мгла 9/3 500 м
[Cb cap As op Cs]
+28.8 +25.4 82 +42 +42 опасность
перегрева
1009.0 1008.5
18 20.07 штиль 0 5000 м мгла 9/3 500 м
[Cu Sc As op Cs]
+28.2 +26.2 89 +43 +43 опасность
перегрева
1009.0 1008.5
21 20.07 З 2 5000 м мгла 8/4 500 м
[Cu Sc As op Cs]
+27.6 +25.6 89 +41 +41 опасность
перегрева
1008.0 1007.5
00 21.07 З 2 6000 м мгла 8/3 540 м
[Sc Ac trans Cs]
+26.8 +25.4 92 +39 +39 очень
душно
1008.8 1008.2 +25.4
03 21.07 В 2 10 км 8/3 500 м
[Cb cap As op Cs]
+30.0 +25.4 76 +44 +50 опасность
перегрева
1009.7 1009.2
06 21.07 СВ 6 10 км 8/1 500 м
[Cb cap As trans Cs]
+31.6 +25.1 69 +46 +50 опасность
перегрева
1009.0 1008.5
09 21.07 СВ 4 10 км 5/3 500 м
[Sc As trans Ci fib]
+31.8 +25.3 69 +46 +49 опасность
перегрева
1007.0 1006.5
12 21.07 ЮЗ 6 5000 м осадки на расстоянии 6/4 480 м
[Cb cap As op Ci fib]
+27.8 +21.9 70 +36 +36 очень
душно
1008.7 1008.2 +32.2

 

Местоположение метеостанции Белаван (Индонезия): широта 3.80 долгота 98.70 высота над уровнем моря 3 м.

В архиве по умолчанию представлена погода в Белаване за последнюю неделю. Архивные данные за месяц целиком и за предыдущие месяцы, начиная с января 2011 года, Вы можете получить, выбрав интересующий диапазон дат из раскрывающегося списка и нажав кнопку "Ввод!".


*Определитесь, кто Вы:
робот инопланетянин человек

Внимание! Время в таблицах - всемирное. Для получения местного времени необходимо прибавить поправку, которая равна 7 ч.

Смотрите также архив погоды в соседних городах и на ближайших метеорологических станциях:

Погода в Медан Полония (Индонезия) (26 км)
Погода в Ситаване (Малайзия) (227 км)
Погода в Лхоксёмаве (Индонезия) (230 км)
Погода в Пенанге (Малайзия) (240 км)
Погода в Сиболге (Индонезия) (251 км)
Погода на Авиабазе Баттерворт (Малайзия) (263 км)
Погода в Ипохе (Малайзия) (280 км)
Погода в Гунунгситоли (Индонезия) (282 км)
Погода в Меулабохе (Индонезия) (291 км)
Погода в Лангкави (Малайзия) (304 км)

Пояснения к столбцам:

Ветер - указаны скорость ветра в м/с - средняя за 10 мин, порывы в срок и между сроками (в фигурных скобках) и направление, откуда дует ветер: С - северный, СВ - северо-восточный, В - восточный, ЮВ - юго-восточный, Ю - южный, ЮЗ - юго-западный, З - западный, СЗ - северо-западный.
Видимость - горизонтальная дальность видимости в метрах или километрах. При видимости от 1 до 10 км при отсутствии осадков обычно наблюдается дымка, при ухудшении видимости до 1 км и менее - туман. В сухую погоду видимость может ухудшаться дымом, пылью или мглою.
Явления - указаны атмосферные явления, наблюдавшиеся в срок или в последний час перед сроком; фигурными скобками обозначены явления, наблюдавшиеся между сроками (за 1-3 часа до срока); квадратными скобками обозначены град или гололедные отложения с указанием их диаметра в мм.
Облачность - указаны через наклонную черту общая и нижняя облачность в баллах и высота нижней границы облаков в метрах; квадратными скобками обозначены формы облаков: Ci - перистые, Cs - перисто-слоистые, Cc - перисто-кучевые, Ac - высококучевые, As - высокослоистые, Sc - слоисто-кучевые, Ns - слоисто-дождевые, Cu - кучевые, Cb - кучево-дождевые. Подробнее классификацию облаков см. в Атласе облаков (PDF).
T - Температура воздуха - температура, измеренная на высоте 2 м над землей.
Td - Температура точки росы - температура, при понижении до которой содержащийся в воздухе водяной пар достигнет насыщения.
f - Относительная влажность воздуха - влажноcть воздуха, измеренная на высоте 2 м над землей.
Te - Эффективная температура - температура, которую ощущает одетый по сезону человек в тени. Характеристика душности погоды. При расчете учитывается влияние влажности воздуха и скорости ветра на теплоощущения человека.
Tes - Эффективная температура на солнце - температура, которую ощущает человек, с поправкой на солнечный нагрев. Характеристика знойности погоды. Зависит от высоты солнца над горизонтом, облачности и скорости ветра. Ночью, в пасмурную погоду, а также при ветре 12 м/с и более поправка равна нулю.
P - Атмосферное давление - приведенное к уровню моря атмосферное давление.
Po - Атмосферное давление - измеренное на уровне метеостанции атмосферное давление.
Tmin - Минимальная температура - минимум температуры воздуха на высоте 2 м над землей.
Tmax - Максимальная температура - максимум температуры воздуха на высоте 2 м над землей.
R - Количество осадков - Количество выпавших осадков за период времени, мм. При наведении курсора мыши на число - период времени, за который выпало указанное количество осадков.
R24 - Количество осадков - Количество выпавших осадков за 24 часа, мм.
S - Снежный покров - Высота снежного покрова, см. При наведении курсора мыши на число - состояние снежного покрова и степень покрытия местности в баллах.